Location: Domicella
(40.8833°N, 14.5833°E)
Time: 10:49:44
(UTC+00:00)

DELTA 2 R/B (1) - Pass Details

Date: 15 May 2026
Orbit: 787 x 800 km, 39.6° (Epoch: 7 June)

Event Time Altitude Azimuth Distance (km) Brightness Sun altitude
Rises 20:45:10 0° 277° (W) 3,289 7.4 -22.6°
Reaches altitude 10° 20:47:40 10° 274° (W) 2,356 6.5 -22.9°
Maximum altitude 20:53:09 63° 195° (SSW) 875 3.5 -23.4°
Enters shadow 20:53:41 60° 165° (SSE) 900 3.5 -23.5°
